Location: Asheville, NC
(35.6000°N, 82.5500°W)
Time: 00:29:15
(UTC-04:00)

Vanguard 1 - Pass Details

Date: 16 March 2018
Orbit: 650 x 3833 km, 34.3° (Epoch: 24 June)

Event Time Altitude Azimuth Distance (km) Brightness Sun altitude
Rises 13:39:02 0° 279° (W) 7,931 14.6 52.8°
Reaches altitude 10° 13:44:26 10° 279° (W) 6,940 14.5 52.8°
Maximum altitude 14:07:41 77° 199° (SSW) 3,215 14.1 52.2°
Drops below altitude 10° 14:22:20 10° 115° (ESE) 4,683 13.7 51.5°
Sets 14:25:12 0° 114° (ESE) 5,353 13.9 51.3°
